カタログに戻る

STARLINK-5065

運用中通信VLEO
NORAD 55641·PAYLOAD·🇺🇸 United States

打ち上げ Feb 17, 2023 から Vandenberg Space Force Base

Loading…

次のパス (今後24時間)

TLE

最新Source: CelesTrak SupGP

元期: Sep 15, 2026, 01:53 UTC

1 55641C 23021P   26258.07895833 -.00052131  00000+0 -43693-2 0  2583
2 55641  70.0009  67.0719 0002706 267.8364 202.1632 14.98353254    11

AllMySatでSTARLINK-5065をリアルタイム追跡

Download on the App Store